Regional Weather Roundup
Issued by NWS Northern Indiana

Home | Current Version | Previous Version | Text Only | Print | Product List | Glossary On
Versions: 1 2 3 4 5 6 7 8 9 10 11 12 13 14 15 16 17 18 19 20 21 22 23 24 25 26 27 28 29 30 31 32 33 34 35 36 37 38 39 40 41 42 43 44 45 46 47 48 49 50
000
ASUS43 KIWX 230100
RWRIWX

KIWX WEATHER ROUNDUP
NATIONAL WEATHER SERVICE NORTHERN INDIANA
900 PM EDT MON SEP 22 2014

NOTE: "FAIR" INDICATES FEW OR NO CLOUDS BELOW 12,000 FEET WITH NO
SIGNIFICANT WEATHER AND/OR OBSTRUCTIONS TO VISIBILITY.

* THESE STATIONS ARE NOT UNDER NWS QUALITY CONTROL. THEY ALSO MAY NOT
  REPORT WEATHER SUCH AS PRECIPITATION OR FOG.

INZ001>027-230200-
NORTHERN INDIANA

CITY           SKY/WX    TMP DP  RH WIND       PRES   REMARKS
GARY*          CLEAR     50  48  93 VRB5      30.26R
VALPARAISO     CLEAR     51  44  77 CALM      30.27R
KNOX*          CLEAR     49  46  87 SE3       30.25S
SOUTH BEND     CLEAR     51  45  79 CALM      30.27R
ELKHART*       PTCLDY    52  46  82 CALM      30.27R
GOSHEN         CLEAR    N/A N/A N/A NW5       30.26R
MONTICELLO*    CLEAR     51  47  88 N5        30.25R
WARSAW*        CLEAR     54  45  71 NW3       30.26R
ANGOLA*        CLEAR     54  46  76 NW5       30.25R
FORT WAYNE     CLEAR     52  46  80 CALM      30.25R
PERU/GRISSOM   CLEAR     57  49  74 N5        30.25R

$$
INZ028>050-230200-
CENTRAL INDIANA

CITY           SKY/WX    TMP DP  RH WIND       PRES   REMARKS
LAFAYETTE      CLEAR     53  47  79 N6        30.25R
KOKOMO*        CLEAR     52  46  82 CALM      30.25R
MUNCIE*        CLEAR     51  45  79 CALM      30.25R
INDIANAPOLIS   CLEAR     59  43  55 N3        30.24R

$$
MIZ043>046-050>051-056>058-064>065-071>073-077>080-230200-
SOUTHWEST LOWER MICHIGAN

CITY           SKY/WX    TMP DP  RH WIND       PRES   REMARKS
BATTLE CREEK   CLEAR     51  44  77 W6        30.26R
BENTON HARBOR  CLEAR     47  46  97 CALM      30.25R
COLDWATER*     CLEAR     54  46  75 CALM      30.25R
HILLSDALE*     CLEAR     47  46  96 CALM      30.24R
HOLLAND        CLEAR     51  47  86 CALM      30.25R
GRAND RAPIDS   CLEAR     54  47  77 SW5       30.24R
KALAMAZOO      CLEAR     52  44  74 W3        30.26R
STURGIS*       CLEAR     52  46  82 NW5       30.26R
THREE RIVERS*  FAIR      52  46  78 CALM      30.26R

$$
OHZ001>008-015>018-024>025-230200-
NORTHWEST OHIO

CITY           SKY/WX    TMP DP  RH WIND       PRES   REMARKS
DEFIANCE       CLEAR    N/A N/A N/A CALM      30.25R
FINDLAY        CLEAR     54  43  66 MISG      30.23R
TOLEDO EXPRESS CLEAR     49  45  86 CALM      30.24R
TOLEDO METCALF CLEAR     56  41  57 CALM      30.25R
LIMA           CLEAR     53  44  71 CALM      30.24R

$$
AND FOR LAKE MICHIGAN COASTAL AND OPEN LAKE BUOY OBSERVATIONS

STATION/POSITION TEMP    WIND        PRES    VSBY  WAVE
                 AIR SEA DIR/SP/G                  HT/PER
                 (F)     (DEG/KT/KT) (MB)    (MI)  (FT/S)
CALUMET HARBOR    59     160/  3/  4 1022.9R
SAINT JOSEPH      55      CALM  /  5 1024.4R
SOUTH LAKE BUOY   60 62  190/ 10/ 10 1023.5F         1/ 6
4 MI NW BRIDGMAN  58 65  160/  8/ 10   N/A           1/ 5
MICHIGAN CITY     58 64  170/  8/ 10   N/A           2/ 6

$$
&&


USA.gov is the U.S. government's official web portal to all federal, state and local government web resources and services.